Regional Weather Roundup
Issued by NWS

Home | Current Version | Previous Version | Text Only | Print | Product List | Glossary On
Versions: 1 2 3 4 5 6 7 8 9 10 11 12 13 14 15 16 17 18 19 20 21 22 23 24 25 26 27 28 29 30 31 32 33 34 35 36 37 38 39 40 41 42 43 44 45 46 47 48 49 50
000
ASUS44 KEWX 241212
RWRTX
SOUTH TEXAS REGIONAL WEATHER ROUNDUP
NATIONAL WEATHER SERVICE AUSTIN/SAN ANTONIO TX
700 AM CDT MON APR 24 2017

NOTE: "FAIR" INDICATED FEW OR NO CLOUDS BELOW 12,000 FEET WITH NO
SIGNIFICANT WEATHER AND/OR OBSTRUCTIONS TO VISIBILITY.

* - THESE STATIONS ARE NOT NWS OR FAA STATIONS...AND ARE NOT SUBJECT
    TO NWS AND FAA QUALITY CONTROL.

TXZ171-172-183>190-241300-
TEXAS HILL COUNTRY AND EDWARDS PLATEAU

CITY           SKY/WX    TMP DP  RH WIND       PRES   REMARKS
JUNCTION       CLOUDY    42  37  82 CALM      29.94F
6HR MIN TEMP:  41; 6HR MAX TEMP:  51;

*LLANO         CLEAR     43  39  87 CALM      30.00S
BURNET         CLEAR     47  41  80 CALM      29.99S
6HR MIN TEMP:  46; 6HR MAX TEMP:  55;

*HORSESHOE BAY CLEAR     44  43  94 CALM      29.97F
6HR MIN TEMP:  44; 6HR MAX TEMP:  56;

*KERRVILLE     CLOUDY    42  41  95 CALM      29.96F
6HR MIN TEMP:  41; 6HR MAX TEMP:  49;

*FREDERICKSBRG CLEAR     40  37  90 CALM      29.97F
6HR MIN TEMP:  40; 6HR MAX TEMP:  45;

*ROCKSPRINGS   CLOUDY    52  43  71 S8        29.96F
*BOERNE STAGE  CLOUDY    43  41  93 CALM      29.98F
*CASTROVILLE   CLOUDY    46  45  93 CALM      29.98S
HONDO          CLOUDY    48  43  82 N5        29.96F WCI  46
6HR MIN TEMP:  47; 6HR MAX TEMP:  53;

*UVALDE        CLOUDY    49  45  85 NE6       29.96F WCI  47
6HR MIN TEMP:  48; 6HR MAX TEMP:  52;

DEL RIO        NOT AVBL
LAUGHLIN AFB   PTCLDY    53  45  76 SE7       29.91F
6HR MIN TEMP:  52; 6HR MAX TEMP:  56;

CARRIZO SPRGS  CLEAR     48  45  87 CALM      29.94S
*EAGLE PASS    NOT AVBL
$$

TXZ173-191>194-202-209-217>225-228-241300-
CENTRAL AND SOUTH CENTRAL TEXAS

CITY           SKY/WX    TMP DP  RH WIND       PRES   REMARKS
GEORGETOWN     CLEAR     48  41  76 CALM      29.98S
AUSTIN/BERGSTM PTCLDY    46  43  89 W3        29.98R
6HR MIN TEMP:  44; 6HR MAX TEMP:  52;

AUSTIN/MABRY   CLEAR     50  44  80 CALM      29.98S
6HR MIN TEMP:  48; 6HR MAX TEMP:  55;

*AUSTIN/EXEC   CLEAR     50  45  81 CALM      29.98S
*LAGO VISTA    CLEAR     56  43  62 SW3       29.98S
6HR MIN TEMP:  53; 6HR MAX TEMP:  60;

SAN MARCOS     CLOUDY    46  43  87 NW3       29.98S
6HR MIN TEMP:  46; 6HR MAX TEMP:  52;

NEW BRAUNFELS  CLOUDY    48  44  86 N5        29.96S WCI  46
6HR MIN TEMP:  47; 6HR MAX TEMP:  52;

RANDOLPH AFB   CLOUDY    48  46  93 CALM      29.96S
6HR MIN TEMP:  46; 6HR MAX TEMP:  56;

PT SAN ANTONIO CLOUDY    47  45  91 N3        29.94F
6HR MIN TEMP:  47; 6HR MAX TEMP:  54;

SAN ANTONIO    CLOUDY    50  44  80 NW5       29.97S WCI  48
6HR MIN TEMP:  48; 6HR MAX TEMP:  60;

STINSON FIELD  CLOUDY    51  46  83 CALM      29.95S
6HR MIN TEMP:  50; 6HR MAX TEMP:  55;

*LA GRANGE     CLOUDY    49  47  95 CALM      29.96R
6HR MIN TEMP:  49; 6HR MAX TEMP:  55;

*GIDDINGS      CLOUDY    47  45  93 CALM      29.98R
6HR MIN TEMP:  46; 6HR MAX TEMP:  53;

*GONZALES      CLOUDY    47  47 100 CALM      29.97S
6HR MIN TEMP:  46; 6HR MAX TEMP:  53;

$$

TXZ163>164-176>182-195>201-210>213-226-227-235-241300-
SOUTHEAST TEXAS

CITY           SKY/WX    TMP DP  RH WIND       PRES   REMARKS
COLLEGE STN    CLOUDY    49  46  90 CALM      29.98R
6HR MIN TEMP:  49; 6HR MAX TEMP:  55;

*BRYAN         CLOUDY    46  46 100 CALM      29.98S
6HR MIN TEMP:  44; 6HR MAX TEMP:  52;

*CALDWELL      NOT AVBL
*CROCKETT      CLOUDY    45  45 100 CALM      30.00R
*BRENHAM       CLOUDY    48  47  97 CALM      29.98R
6HR MIN TEMP:  47; 6HR MAX TEMP:  52;

HUNTSVILLE     CLEAR     49  45  86 CALM      29.97R
6HR MIN TEMP:  49; 6HR MAX TEMP:  54;

CONROE         CLEAR     44  43  96 CALM      29.97R
6HR MIN TEMP:  44; 6HR MAX TEMP:  49;

HOUSTON BUSH   PTCLDY    53  49  86 CALM      29.97R
6HR MIN TEMP:  52; 6HR MAX TEMP:  58;

HOUSTON HOBBY  PTCLDY    55  50  83 CALM      29.96S
6HR MIN TEMP:  54; 6HR MAX TEMP:  59;

*HOUSTON SW AP CLEAR     47  46  96 CALM      29.98R
6HR MIN TEMP:  47; 6HR MAX TEMP:  53;

PEARLAND       CLEAR     55  49  80 CALM      29.98R
6HR MIN TEMP:  53; 6HR MAX TEMP:  59;

HOUSTON HOOKS  CLEAR     49  47  93 CALM      29.97S
6HR MIN TEMP:  49; 6HR MAX TEMP:  54;

ELLINGTON FLD  NOT AVBL
SUGAR LAND     CLEAR     50  50 100 CALM      29.96S
6HR MIN TEMP:  50; 6HR MAX TEMP:  57;

*HOUSTON EXEC  CLEAR     50  48  93 CALM      29.98S
*CLEVELAND MUN CLEAR     46  45  96 CALM      29.98R FOG
6HR MIN TEMP:  46; 6HR MAX TEMP:  50;

*WHARTON       PTCLDY    49  47  94 CALM      29.97S
6HR MIN TEMP:  49; 6HR MAX TEMP:  55;

*COLUMBUS      FAIR      49  47  94 CALM      29.98S
6HR MIN TEMP:  48; 6HR MAX TEMP:  52;

*EAGLE LAKE    CLOUDY    52  51  97 CALM      29.97S
6HR MIN TEMP:  52; 6HR MAX TEMP:  56;

$$

TXZ214>216-236>238-241300-
THE UPPER TEXAS COAST

CITY           SKY/WX    TMP DP  RH WIND       PRES   REMARKS
*ORANGE        CLEAR     52  51  98 CALM      29.98S
6HR MIN TEMP:  50; 6HR MAX TEMP:  56;

PORT ARTHUR    CLEAR     53  49  86 NW5       29.96R
6HR MIN TEMP:  52; 6HR MAX TEMP:  55;

GALVESTON      CLEAR     62  53  72 NW8       29.97R
6HR MIN TEMP:  62; 6HR MAX TEMP:  67;

ANGLETON       CLEAR     50  49  96 CALM      29.97R
6HR MIN TEMP:  50; 6HR MAX TEMP:  54;

*BAY CITY      PTCLDY    50  49  96 CALM      29.96S
PALACIOS       PTCLDY    52  48  86 N5        29.96S
6HR MIN TEMP:  52; 6HR MAX TEMP:  59;

$$

TXZ229>234-239>247-241300-
TEXAS COASTAL BEND AND RIO GRANDE PLAINS

CITY           SKY/WX    TMP DP  RH WIND       PRES   REMARKS
VICTORIA       PTCLDY    50  48  93 NW5       29.97S WCI  48
6HR MIN TEMP:  50; 6HR MAX TEMP:  57;

*BEEVILLE      PTCLDY    54  48  80 CALM      29.96S
6HR MIN TEMP:  53; 6HR MAX TEMP:  59;

ROCKPORT       PTCLDY    55  49  80 CALM      29.96R
6HR MIN TEMP:  54; 6HR MAX TEMP:  63;

*PORT ARANSAS  PTCLDY    62  54  74 CALM      29.95F
6HR MIN TEMP:  62; 6HR MAX TEMP:  66;

*PORT LAVACA   PTCLDY    52  50  93 CALM      29.97S
*INGLESIDE     PTCLDY    54  49  83 NE8       29.96S
CORPUS CHRISTI PTCLDY    54  51  90 CALM      29.96S
6HR MIN TEMP:  54; 6HR MAX TEMP:  65;

CORPUS NAS     PTCLDY    59  55  87 W3        29.95F
6HR MIN TEMP:  59; 6HR MAX TEMP:  70;

*ROBSTOWN      PTCLDY    54  49  84 CALM      29.97S
6HR MIN TEMP:  54; 6HR MAX TEMP:  62;

ALICE          PTCLDY    52  48  86 W3        29.96S
6HR MIN TEMP:  49; 6HR MAX TEMP:  56;

KINGSVILLE NAS PTCLDY    52  50  93 CALM      29.96S
6HR MIN TEMP:  51; 6HR MAX TEMP:  59;

COTULLA        CLEAR     53  44  71 SE5       29.95S
6HR MIN TEMP:  53; 6HR MAX TEMP:  60;

*FAITH RANCH   CLEAR     57  45  62 SE7       29.94S
LAREDO         CLEAR     60  47  61 SE9       29.95F
6HR MIN TEMP:  59; 6HR MAX TEMP:  65;

$$

TXZ248>255-241300-
DEEP SOUTH TEXAS

CITY           SKY/WX    TMP DP  RH WIND       PRES   REMARKS
BROWNSVILLE    CLEAR     59  54  83 CALM      29.97S
6HR MIN TEMP:  58; 6HR MAX TEMP:  62;

PORT ISABEL    CLEAR     58  54  86 CALM      29.96S
6HR MIN TEMP:  57; 6HR MAX TEMP:  61;

*SOUTH PADRE   NOT AVBL
HARLINGEN      CLEAR     57  54  89 CALM      29.96S
6HR MIN T


USA.gov is the U.S. government's official web portal to all federal, state and local government web resources and services.